Tracking 17264 objects as of 30-August-2015
HD Live streaming from Space Station

RUBIN 2

Track RUBIN 2 now!
10-day predictions
RUBIN 2 is classified as:


NORAD ID: 27605
Int'l Code: 2002-058A
Perigee: 594.8 km
Apogee: 712.4 km
Inclination: 64.6 °
Period: 97.7 minutes
Semi major axis: 7024 km
RCS: 0.234 m2 (medium)
Launch date: December 20, 2002
Source: Germany (GER)
Your satellite tracking list
Your tracking list is empty





NASA's NSSDC Master Catalog

Two Line Element Set (TLE):
1 27605U 02058A   15242.22277492  .00000160  00000-0  43769-4 0  9994
2 27605 064.5561 313.8437 0083735 274.2473 118.8334 14.74590714682605

Source of the keplerian elements: AFSPC

N2YO: 417